Wind_Speed
19 18 17 15 14 13 13 17 18 18 18 17 16 15 13 12 12 13 12 12 12 13 14 15 14 14 13 13 12 11 11 11 11 10 9 7 6 5 5 4 4 5 5 5 5 5 4 4 3
20 20 19 17 16 14 14 18 19 20 19 17 17 16 14 13 13 14 14 13 13 14 15 16 15 15 14 14 13 13 13 12 12 11 10 9 8 7 6 6 6 6 6 6 6 5 5 4 3
22 22 22 20 18 16 17 21 21 21 19 18 17 16 15 15 15 14 14 15 17 17 16 17 17 16 16 15 14 14 14 14 13 12 11 11 10 9 8 8 8 7 7 7 6 6 5 5 4
24 24 24 22 20 19 21 23 23 22 21 19 17 15 15 15 15 14 15 15 16 17 17 17 17 17 17 16 16 15 15 15 14 14 13 12 12 11 10 10 9 9 8 8 7 7 6 6 5
25 25 25 24 21 22 23 25 25 24 23 21 18 16 15 15 15 15 15 15 16 16 16 17 16 17 17 17 17 17 17 16 16 15 15 14 14 13 12 11 11 10 9 9 8 8 7 7 6
25 25 25 24 24 25 25 26 27 26 25 24 21 18 17 15 14 14 15 14 15 16 17 17 18 18 18 18 18 18 18 18 17 17 17 16 15 14 14 13 12 12 11 10 10 9 9 8 7
24 25 25 24 25 26 27 28 28 28 28 26 23 20 18 16 14 14 14 14 15 18 17 17 17 18 18 19 19 19 19 19 19 19 18 18 17 16 15 15 14 13 12 12 11 11 10 10 9
23 24 24 24 25 27 29 29 29 29 29 28 25 21 20 18 16 15 15 15 15 16 17 17 18 19 19 20 20 21 20 20 20 20 20 19 18 17 17 16 15 14 14 13 12 12 12 12 11
22 22 23 24 25 27 27 28 29 29 29 29 26 24 22 19 18 17 16 16 16 17 17 18 19 20 21 22 22 21 21 21 21 21 21 20 19 18 18 17 16 16 15 14 14 13 14 13 13
21 22 23 24 24 26 26 27 28 28 29 29 28 26 24 21 19 18 17 16 17 17 18 18 19 20 21 22 23 22 22 22 21 22 22 21 20 19 19 18 18 17 16 16 15 15 15 15 15
22 22 23 23 24 24 25 26 27 27 28 29 29 28 25 23 21 20 19 18 18 18 18 19 19 20 22 22 23 23 23 22 22 22 22 21 21 20 20 19 19 18 18 17 17 17 17 17 17
22 22 23 23 24 24 25 26 26 27 28 29 29 29 27 25 23 22 21 20 19 18 19 19 21 20 21 22 24 24 25 24 23 23 22 22 22 22 21 20 20 20 19 19 19 19 19 18 18
21 22 23 24 24 24 25 25 26 27 28 29 29 28 27 26 25 24 22 21 20 19 20 20 21 20 22 23 23 24 24 25 25 24 23 24 24 23 23 22 21 21 21 20 20 20 20 21 21
23 23 24 25 25 25 25 26 26 27 28 28 28 29 28 28 27 27 25 24 23 22 22 21 21 22 23 24 24 24 25 25 25 25 25 24 24 23 23 24 23 23 22 22 22 22 22 22 22
24 24 25 26 26 26 25 26 26 27 28 28 28 29 29 29 29 28 28 27 25 25 24 22 22 23 23 24 25 26 26 26 27 26 26 25 25 24 24 25 25 24 24 24 23 23 23 24 24
24 24 25 27 26 26 25 25 27 27 28 28 29 30 30 30 30 30 29 28 28 27 26 24 23 23 23 23 24 25 26 26 27 27 27 27 27 27 27 26 26 26 26 25 26 25 25 25 25
21 21 21 25 25 25 25 26 27 27 27 28 29 30 31 30 31 31 31 30 29 28 27 26 25 24 23 23 24 22 23 25 26 27 28 29 30 29 29 28 28 28 28 27 27 28 27 27 27
19 19 19 21 24 23 24 25 26 26 27 28 29 30 31 31 31 32 32 32 32 31 29 27 26 25 25 23 23 22 22 24 26 27 28 28 29 30 29 30 29 29 29 29 28 29 29 29 30
18 18 18 20 22 22 23 24 24 25 26 27 28 30 31 31 31 32 32 33 33 33 31 29 28 27 26 24 23 22 22 24 25 26 27 27 28 29 30 31 30 29 29 29 29 29 30 30 31
16 16 17 19 20 21 22 23 23 24 25 26 28 29 31 31 32 32 33 33 34 33 33 31 30 29 27 25 24 24 23 23 24 26 27 27 28 29 30 30 31 30 30 30 30 30 30 30 30
15 15 16 17 18 18 20 20 21 22 23 24 26 28 29 30 31 32 33 34 34 33 33 32 31 30 29 26 25 24 24 24 25 25 25 23 24 27 29 30 28 28 30 31 31 31 31 32 32
14 14 15 16 16 16 18 18 19 20 21 22 24 25 26 27 29 30 31 32 33 33 33 33 32 31 29 28 27 26 26 25 24 24 23 22 23 24 26 28 29 28 29 29 31 30 30 31 31
13 14 14 15 16 16 16 17 18 18 19 20 21 23 24 25 27 28 30 31 31 31 32 32 32 31 30 29 29 29 27 26 25 24 25 24 23 23 26 27 28 29 30 30 30 31 32 32 31
12 12 13 13 14 14 13 14 13 13 15 17 19 20 21 23 24 25 27 28 29 30 31 31 31 30 29 29 28 27 26 26 25 25 25 24 25 25 27 28 29 29 30 31 31 30 29 30 31
11 11 11 12 12 12 12 14 13 11 12 14 17 18 20 21 22 23 24 25 27 28 30 30 30 30 30 29 28 27 27 26 25 25 24 24 25 25 26 27 28 29 30 31 30 30 31 32 33
10 9 10 11 10 12 13 13 13 12 12 13 15 17 19 20 21 22 23 25 26 27 28 29 29 30 30 29 28 27 26 24 24 24 23 24 24 25 26 27 28 29 29 30 30 31 33 34 34
9 10 11 11 11 13 13 14 13 12 12 12 14 16 18 20 22 22 23 25 26 27 28 28 28 28 28 28 27 27 26 25 24 24 24 24 24 25 26 26 27 28 29 30 31 32 33 34 35
9 10 11 10 12 13 14 14 12 11 11 11 12 14 16 18 21 23 23 24 25 27 28 29 28 29 29 28 28 28 27 26 25 25 25 26 27 27 28 28 29 29 30 32 32 32 34 35 35
10 10 11 12 13 13 13 13 13 12 12 12 13 12 14 16 18 21 22 23 24 26 27 28 28 28 29 28 28 28 28 27 26 26 27 27 27 27 28 29 29 30 31 32 33 34 35 36 37
9 10 11 11 12 13 13 14 12 12 12 12 13 13 13 15 16 18 20 22 22 24 26 27 27 27 28 29 29 29 29 28 28 28 28 28 28 28 29 30 31 31 32 33 34 35 36 37 38
Wind_Direction
257 257 256 254 251 252 250 256 258 260 260 260 261 260 258 255 253 250 240 232 220 215 212 208 203 200 204 208 212 217 220 220 218 214 211 211 217 226 239 253 266 278 287 291 293 294 292 286 280
257 257 256 254 250 248 252 256 257 259 261 262 262 261 257 252 253 256 246 233 225 221 219 212 207 205 207 212 216 220 223 224 223 222 221 222 227 235 246 255 263 271 276 277 278 278 271 265 258
257 256 255 255 251 245 246 254 256 260 262 262 263 263 258 253 252 255 248 239 230 227 222 214 213 214 214 216 219 223 227 228 227 227 226 228 233 239 247 253 259 264 269 267 267 265 256 251 245
256 256 256 255 253 249 246 252 256 259 262 263 263 265 261 256 254 252 248 245 237 229 224 220 219 220 221 222 223 226 230 230 231 232 232 234 237 240 245 249 254 258 259 258 258 254 248 246 242
256 256 256 257 255 251 249 250 253 256 260 261 262 263 265 262 257 252 252 247 240 229 224 225 225 227 229 230 230 231 232 233 233 235 237 238 239 242 244 246 249 251 251 250 249 246 244 245 242
257 257 257 257 255 253 251 250 252 254 257 259 259 259 261 263 260 257 257 249 241 229 225 225 229 231 235 236 235 235 236 236 236 237 238 239 240 241 243 245 246 247 246 245 244 243 242 243 241
257 257 257 257 255 254 252 251 250 252 254 256 256 256 256 257 259 260 256 253 245 229 228 230 233 237 239 241 240 239 239 239 239 239 240 240 240 240 242 243 244 243 243 242 241 241 240 240 239
258 258 258 257 255 254 253 252 251 251 252 254 255 254 256 255 257 261 256 252 247 238 234 238 241 242 243 242 243 242 241 241 241 241 240 240 240 240 240 241 242 242 242 240 239 239 238 238 238
259 259 259 257 255 255 255 254 253 253 254 254 254 252 254 254 255 259 258 251 248 248 243 241 242 245 243 243 244 244 243 242 242 242 241 240 240 239 239 239 240 241 241 238 238 237 237 238 238
262 261 260 259 257 257 257 255 255 253 253 254 253 251 250 251 252 255 256 254 253 252 246 243 244 245 246 245 244 245 244 243 242 241 241 241 240 239 240 240 240 241 240 237 237 236 237 239 239
264 263 262 261 259 258 257 256 255 253 251 250 250 249 247 247 249 251 254 257 258 255 249 244 244 246 246 242 241 241 242 242 242 241 241 241 241 241 241 241 241 242 241 238 238 238 238 239 241
265 264 263 262 261 259 257 256 254 252 250 249 249 248 246 245 245 247 251 253 254 253 246 244 246 248 246 245 244 239 240 243 243 242 241 243 244 243 241 242 243 244 242 239 239 240 240 241 243
265 264 263 262 261 260 258 256 254 253 250 249 248 246 243 242 241 243 246 250 253 252 246 246 246 246 248 250 248 244 242 244 243 241 244 245 243 243 243 243 243 243 242 239 240 242 243 244 246
268 266 264 262 262 261 260 259 256 253 251 248 245 243 241 239 240 241 242 245 249 249 248 249 251 253 256 256 253 247 243 247 246 244 243 244 242 243 242 244 243 242 240 240 243 245 245 246 248
272 270 268 265 263 262 262 260 256 252 250 247 245 243 241 239 238 239 239 242 246 248 252 253 254 255 257 257 254 247 246 247 245 243 245 245 244 240 242 244 244 243 242 241 244 246 248 249 250
276 274 271 268 264 263 262 259 257 253 250 247 244 242 239 238 237 238 239 240 244 247 251 253 255 257 260 261 260 253 249 248 245 244 244 244 243 243 243 243 244 246 244 244 245 248 248 251 252
279 275 270 270 266 264 260 257 258 254 250 248 245 243 240 237 236 237 238 239 242 246 250 251 256 258 262 263 261 261 258 251 249 248 244 244 244 243 243 243 246 246 245 244 246 248 250 252 253
278 276 272 270 268 265 262 260 258 255 251 248 245 243 242 239 237 237 237 238 240 244 248 251 255 257 258 260 262 260 259 257 254 253 247 245 244 245 246 245 246 245 243 243 247 249 251 254 257
277 274 271 268 268 266 264 262 259 256 252 248 245 242 242 240 238 236 237 238 241 242 246 250 252 257 259 263 266 268 266 263 259 254 250 247 245 243 245 245 245 246 245 245 248 252 253 255 257
281 277 274 272 270 268 267 266 263 258 254 250 246 243 241 240 238 237 236 239 241 244 247 250 252 256 260 263 266 265 266 264 260 255 253 249 246 244 244 245 247 248 249 250 250 252 253 256 260
283 277 272 271 273 273 272 271 267 262 257 251 247 244 241 239 239 237 237 238 240 243 246 250 253 256 259 263 265 264 266 267 265 259 256 253 249 245 244 245 248 250 250 253 254 255 256 258 260
284 279 275 274 275 276 274 272 269 264 259 253 248 244 241 239 238 238 238 238 240 243 245 249 252 256 259 260 260 261 264 266 266 261 258 254 251 250 247 245 250 252 253 255 254 255 256 258 260
280 279 279 278 277 276 274 271 270 265 256 251 247 243 240 237 237 237 237 238 239 242 245 248 251 255 259 260 258 258 260 263 264 263 260 257 254 252 252 251 252 255 255 257 258 258 258 259 261
284 285 285 284 280 277 278 276 274 264 254 250 245 241 238 236 235 235 236 237 238 241 244 247 250 255 257 258 259 258 259 262 262 260 258 255 253 253 253 252 253 256 257 259 260 261 262 263 264
286 284 287 288 282 282 279 274 273 270 260 250 240 236 236 235 235 236 235 237 239 242 244 247 250 253 255 256 257 259 259 260 260 259 258 255 253 254 256 254 254 256 260 263 263 264 265 265 265
283 276 272 279 279 277 280 278 279 277 270 258 243 239 236 235 235 236 236 237 240 243 245 247 249 252 254 255 256 258 259 260 258 258 257 257 256 256 255 255 256 257 260 261 263 264 265 266 267
282 277 272 271 280 285 280 279 283 276 272 267 252 240 237 235 235 235 236 237 239 241 243 246 248 250 252 253 256 257 256 258 256 256 256 258 257 258 259 257 257 261 261 261 264 265 266 268 270
279 274 275 281 279 282 287 293 284 273 271 264 257 248 238 237 236 237 239 239 241 241 242 243 247 249 250 250 253 254 255 256 256 256 257 258 260 262 262 261 262 263 263 265 266 267 270 272 272
279 276 274 273 274 282 287 287 285 275 269 262 256 251 246 244 239 238 239 241 242 243 243 245 247 247 247 249 251 252 254 255 256 257 257 259 261 263 263 262 263 264 266 268 269 270 271 273 275
270 270 274 277 285 290 291 291 284 275 273 268 263 256 253 252 246 244 245 244 244 245 244 243 247 248 248 249 251 253 253 254 255 257 259 260 262 264 264 265 266 268 269 270 271 273 274 276 277
Height
5881 5882 5883 5885 5887 5888 5889 5887 5887 5887 5887 5888 5889 5890 5892 5893 5893 5895 5893 5892 5892 5893 5893 5894 5895 5896 5897 5897 5898 5900 5900 5901 5901 5902 5902 5902 5902 5903 5903 5903 5904 5904 5904 5903 5903 5903 5903 5903 5903
5878 5879 5880 5882 5884 5886 5887 5884 5883 5884 5884 5885 5886 5887 5889 5889 5890 5890 5889 5889 5890 5890 5890 5892 5893 5894 5894 5895 5896 5897 5898 5899 5899 5900 5900 5900 5901 5901 5902 5902 5902 5902 5902 5902 5902 5902 5902 5902 5902
5874 5874 5876 5878 5880 5882 5884 5880 5880 5880 5881 5882 5883 5884 5886 5886 5886 5886 5887 5887 5887 5887 5888 5889 5890 5891 5892 5893 5894 5895 5896 5897 5897 5898 5898 5898 5899 5899 5900 5900 5900 5900 5900 5900 5900 5900 5900 5900 5900
5869 5871 5873 5875 5876 5877 5877 5876 5876 5877 5878 5879 5880 5882 5882 5883 5883 5883 5883 5884 5884 5884 5885 5886 5887 5889 5890 5891 5892 5893 5894 5894 5895 5895 5895 5896 5896 5897 5897 5898 5898 5898 5898 5898 5898 5898 5899 5899 5899
5864 5866 5868 5869 5871 5872 5872 5871 5872 5873 5874 5875 5877 5879 5879 5880 5879 5880 5880 5881 5881 5881 5882 5883 5885 5886 5887 5888 5889 5890 5891 5891 5892 5892 5893 5893 5894 5894 5895 5895 5896 5896 5896 5896 5896 5897 5897 5897 5897
5861 5862 5864 5865 5866 5866 5866 5866 5867 5869 5870 5871 5874 5875 5876 5876 5877 5877 5877 5878 5878 5878 5879 5880 5882 5883 5884 5885 5886 5887 5887 5888 5888 5889 5889 5890 5891 5891 5892 5893 5893 5894 5894 5894 5894 5895 5895 5895 5896
5857 5857 5858 5859 5860 5861 5861 5861 5862 5864 5865 5867 5870 5872 5873 5873 5873 5874 5875 5875 5875 5876 5876 5877 5879 5880 5881 5882 5883 5884 5884 5885 5885 5886 5886 5887 5888 5888 5889 5890 5891 5891 5892 5892 5892 5892 5893 5893 5894
5851 5853 5853 5854 5854 5855 5855 5856 5857 5859 5861 5863 5865 5868 5869 5870 5870 5871 5872 5872 5873 5873 5874 5875 5876 5877 5877 5878 5879 5880 5880 5881 5882 5882 5883 5883 5884 5885 5886 5887 5888 5888 5889 5889 5890 5890 5891 5891 5892
5845 5848 5848 5848 5849 5849 5850 5851 5852 5854 5856 5858 5860 5863 5864 5866 5867 5868 5868 5869 5870 5870 5871 5871 5872 5873 5874 5874 5875 5876 5876 5877 5877 5878 5879 5879 5880 5881 5882 5883 5885 5886 5886 5887 5887 5888 5888 5889 5889
5841 5842 5843 5843 5843 5844 5845 5846 5847 5849 5851 5853 5855 5858 5860 5862 5863 5865 5865 5866 5867 5867 5867 5867 5868 5869 5869 5870 5870 5871 5872 5872 5873 5874 5875 5876 5877 5878 5879 5880 5881 5882 5883 5884 5885 5885 5885 5886 5887
5836 5837 5837 5837 5838 5839 5839 5840 5842 5844 5846 5847 5849 5852 5855 5857 5859 5861 5862 5862 5863 5863 5863 5863 5864 5864 5865 5865 5866 5867 5867 5868 5869 5870 5871 5872 5873 5874 5875 5876 5877 5879 5880 5881 5882 5882 5883 5883 5884
5831 5831 5831 5831 5832 5833 5834 5835 5836 5837 5839 5841 5843 5846 5849 5852 5854 5856 5857 5857 5858 5859 5859 5859 5860 5860 5860 5860 5861 5861 5862 5863 5864 5865 5866 5867 5868 5869 5870 5872 5873 5875 5876 5877 5878 5879 5880 5880 5881
5825 5825 5825 5826 5826 5827 5828 5829 5830 5832 5833 5835 5837 5840 5843 5846 5849 5851 5852 5853 5854 5855 5855 5855 5856 5857 5856 5856 5856 5856 5857 5858 5860 5861 5861 5862 5863 5865 5866 5867 5869 5870 5872 5873 5875 5876 5876 5877 5877
5820 5820 5820 5820 5821 5821 5823 5823 5825 5826 5827 5829 5832 5834 5837 5840 5843 5845 5847 5849 5850 5850 5851 5852 5852 5852 5852 5852 5852 5852 5853 5853 5854 5856 5857 5857 5859 5860 5862 5863 5864 5865 5867 5869 5870 5872 5872 5873 5873
5814 5814 5814 5814 5815 5816 5817 5818 5818 5819 5821 5824 5826 5828 5831 5834 5837 5839 5841 5843 5845 5846 5846 5847 5848 5848 5848 5848 5847 5846 5846 5848 5848 5850 5851 5852 5854 5855 5857 5859 5860 5861 5863 5864 5865 5867 5868 5869 5869
5808 5808 5808 5807 5808 5809 5813 5813 5812 5813 5816 5818 5820 5822 5825 5828 5831 5833 5836 5838 5839 5841 5842 5842 5843 5843 5843 5842 5841 5840 5841 5843 5843 5844 5845 5846 5849 5850 5852 5853 5855 5856 5858 5859 5861 5862 5863 5864 5864
5802 5803 5802 5801 5801 5803 5805 5805 5806 5807 5809 5811 5813 5815 5818 5821 5824 5827 5829 5832 5833 5835 5836 5837 5838 5838 5838 5838 5837 5837 5836 5837 5838 5839 5839 5841 5843 5845 5847 5848 5849 5851 5852 5854 5855 5856 5857 5858 5859
5797 5797 5797 5796 5795 5796 5798 5799 5800 5801 5803 5805 5807 5809 5812 5815 5817 5820 5823 5825 5827 5829 5831 5832 5833 5833 5833 5833 5832 5832 5832 5833 5833 5833 5833 5835 5837 5839 5841 5842 5844 5845 5846 5848 5849 5851 5852 5853 5853
5791 5791 5791 5790 5790 5791 5791 5792 5794 5794 5796 5798 5800 5802 5805 5808 5811 5814 5816 5819 5821 5823 5824 5825 5827 5827 5827 5828 5828 5828 5828 5828 5828 5828 5828 5829 5831 5833 5835 5837 5838 5839 5840 5842 5843 5845 5846 5846 5847
5787 5787 5787 5786 5785 5786 5786 5787 5787 5788 5789 5791 5793 5795 5798 5801 5804 5807 5809 5812 5814 5816 5818 5819 5821 5822 5822 5823 5823 5823 5823 5824 5824 5824 5823 5824 5826 5827 5829 5830 5832 5834 5835 5836 5837 5838 5839 5840 5840
5782 5782 5782 5781 5780 5780 5781 5781 5782 5782 5783 5784 5786 5788 5790 5793 5796 5799 5802 5805 5807 5810 5812 5813 5815 5816 5816 5817 5817 5818 5818 5818 5818 5818 5817 5818 5819 5821 5823 5825 5826 5827 5828 5830 5831 5832 5832 5833 5833
5778 5778 5777 5777 5777 5777 5778 5778 5777 5776 5777 5778 5779 5781 5784 5786 5789 5792 5795 5798 5800 5803 5805 5807 5809 5810 5811 5811 5811 5811 5811 5812 5812 5812 5813 5814 5814 5815 5817 5818 5820 5821 5822 5822 5824 5825 5825 5826 5826
5775 5774 5773 5773 5773 5773 5773 5773 5773 5771 5772 5773 5774 5775 5778 5780 5783 5785 5788 5791 5794 5796 5798 5800 5802 5803 5804 5805 5805 5805 5806 5806 5806 5807 5807 5808 5809 5810 5811 5812 5813 5814 5815 5816 5817 5817 5818 5818 5818
5771 5771 5770 5769 5770 5770 5769 5769 5769 5767 5767 5768 5769 5770 5772 5775 5777 5779 5782 5785 5787 5790 5792 5794 5795 5796 5797 5798 5799 5799 5800 5800 5800 5801 5801 5802 5803 5805 5806 5806 5807 5808 5809 5809 5809 5810 5810 5810 5810
5768 5769 5769 5769 5768 5768 5766 5765 5766 5763 5763 5764 5765 5766 5768 5770 5772 5774 5776 5779 5781 5783 5785 5787 5789 5790 5791 5792 5792 5793 5794 5794 5794 5795 5796 5797 5797 5799 5799 5800 5801 5801 5802 5802 5802 5802 5802 5802 5802
5766 5766 5768 5767 5767 5765 5763 5762 5762 5760 5759 5759 5760 5762 5763 5765 5767 5769 5771 5773 5775 5777 5779 5780 5782 5783 5784 5785 5786 5787 5788 5788 5789 5789 5790 5791 5791 5792 5792 5793 5793 5794 5794 5794 5794 5794 5794 5794 5793
5764 5763 5764 5763 5763 5762 5760 5759 5758 5757 5756 5756 5756 5757 5759 5761 5762 5764 5766 5767 5769 5771 5772 5774 5776 5777 5778 5779 5779 5780 5781 5782 5782 5783 5784 5784 5785 5785 5785 5785 5786 5786 5787 5787 5787 5786 5786 5785 5785
5761 5761 5761 5761 5760 5759 5758 5756 5755 5754 5753 5753 5753 5753 5755 5756 5758 5759 5760 5762 5763 5764 5766 5768 5769 5770 5771 5772 5773 5774 5775 5776 5776 5777 5777 5778 5778 5778 5778 5779 5779 5779 5779 5779 5779 5778 5777 5776 5775
5759 5758 5758 5758 5757 5756 5755 5756 5752 5750 5750 5750 5750 5750 5751 5751 5752 5753 5755 5756 5757 5758 5759 5761 5762 5763 5764 5765 5767 5768 5768 5769 5769 5770 5770 5770 5771 5771 5771 5771 5771 5771 5771 5770 5770 5769 5768 5767 5765
5756 5755 5755 5755 5754 5752 5752 5753 5748 5747 5746 5746 5746 5746 5746 5747 5747 5748 5748 5749 5751 5752 5753 5754 5755 5756 5757 5758 5759 5760 5761 5761 5762 5762 5763 5763 5763 5763 5764 5764 5764 5763 5762 5762 5761 5760 5759 5757 5756